Regional Weather Roundup
Issued by NWS

Home | Current Version | Previous Version | Graphics & Text | Print | Product List | Glossary On
Versions: 1 2 3 4 5 6 7 8 9 10 11 12 13 14 15 16 17 18 19 20 21 22 23 24 25 26 27 28 29 30 31 32 33 34 35 36 37 38 39 40 41 42 43 44 45 46 47 48 49 50
000
ASUS45 KABQ 281410
RWRNM
NEW MEXICO REGIONAL WEATHER ROUNDUP
NATIONAL WEATHER SERVICE ALBUQUERQUE NM
800 AM MDT SUN AUG 28 2016

NOTE: "FAIR" MEANS FEW OR NO CLOUDS BELOW 12,000 FEET AGL WITH NO
       SIGNIFICANT WEATHER OR OBSTRUCTIONS TO VISION.

      THIS PRODUCT IS RELEASED AS TWO VERSIONS.  ONE VERSION NEAR
      THE TOP OF THE HOUR CONTAINING PRELIMINARY DATA FROM ALBUQUERQUE
      AND OTHER STATIONS.  A FINAL VERSION WITH ADDITIONAL DATA IS
      ISSUED ABOUT 10 MINUTES AFTER THE HOUR.

NMZ501-503-504-510>518-281500-
NORTHWEST PLATEAU/NORTHCENTRAL MOUNTAINS

CITY           SKY/WX    TMP DP  RH WIND       PRES   REMARKS
FARMINGTON     FAIR      53  47  79 E8        30.28R
SANTA FE       CLOUDY    57  49  74 N13       30.31R
TAOS           FAIR      50  43  76 SW6       30.38R
ANGEL FIRE     FAIR      42  40  91 CALM      30.43S

$$
NMZ402-403-502-505>509-281500-
WESTCENTRAL MOUNTAINS/SOUTHWEST MOUNTAINS

CITY           SKY/WX    TMP DP  RH WIND       PRES   REMARKS
GALLUP         FAIR      50  48  93 W5        30.32R
GRANTS         FAIR      52  47  82 CALM      30.35S
SILVER CITY    CLOUDY    60  55  85 N5        30.25R

$$
NMZ407-409-411-412-281500-
SOUTHERN DESERTS

CITY           SKY/WX    TMP DP  RH WIND       PRES   REMARKS
DEMING         FAIR      67  56  67 E5        30.18R
LAS CRUCES     FAIR      67  59  75 NE5       30.20S
HOLLOMAN AFB   PTSUNNY   63  62  97 W3        30.18R
ALAMOGORDO     CLOUDY    64  59  82 NE5       30.20R
T OR C         PTSUNNY   63  50  62 NW6       30.23R

$$
NMZ519>523-281500-
CENTRAL VALLEYS/CENTRAL HIGHLANDS

CITY           SKY/WX    TMP DP  RH WIND       PRES   REMARKS
ALBUQUERQUE    PTSUNNY   59  50  72 N8        30.28R
DOUBLE EAGLE   PTSUNNY   55  50  82 N5        30.31R
CLINES CORNERS FAIR      58  47  66 NW5       30.35R
BELEN          FAIR      56  52  88 NW6       30.27R
SOCORRO        FAIR      58  50  75 NE5       30.25R

$$
NMZ524>526-539-540-281500-
SOUTHCENTRAL MOUNTAINS

CITY           SKY/WX    TMP DP  RH WIND       PRES   REMARKS
RUIDOSO          N/A     57  50  77 W3        30.36R

$$
NMZ527>531-281500-
NORTHEAST HIGHLANDS/NORTHEAST PLAINS

CITY           SKY/WX    TMP DP  RH WIND       PRES   REMARKS
LAS VEGAS      FAIR      57  46  66 CALM      30.32R
RATON          FAIR      59  51  75 CALM      30.28R
CLAYTON        FAIR      60  59  96 SW8       30.21R

$$
NMZ532>537-281500-
EASTCENTRAL PLAINS

CITY           SKY/WX    TMP DP  RH WIND       PRES   REMARKS
TUCUMCARI      FAIR      68  57  68 SW13      30.18R
CANNON AFB     FAIR      64  60  87 W5        30.20S
CLOVIS AIRPORT FAIR      63  55  77 CALM      30.19S

$$
NMZ028-029-538-281500-
SOUTHEAST PLAINS

CITY           SKY/WX    TMP DP  RH WIND       PRES   REMARKS
ROSWELL        FAIR      67  60  78 W5        30.17S
ARTESIA        FAIR      68  64  88 SW5       30.17S
CARLSBAD       FAIR      69  61  75 NW7       30.15R
HOBBS          SUNNY     68  66  94 N8        30.19R


$$



USA.gov is the U.S. government's official web portal to all federal, state and local government web resources and services.